Tracking 31027 objects as of 19-Jul-2025
HD Live streaming from Space Station
objects crossing your sky now

STARLINK-4738

Track STARLINK-4738 now!
10-day predictions
STARLINK-4738 is classified as:


NORAD ID: 53819
Int'l Code: 2022-114B
Perigee: 546.0 km
Apogee: 547.7 km
Inclination: 53.2 °
Period: 95.4 minutes
Semi major axis: 6917 km
RCS: Unknown
Launch date: September 19, 2022
Source: United States (US)
Launch site: AIR FORCE EASTERN TEST RANGE (AFETR)
Your satellite tracking list
STARLINK-6351
Track 1 satellite(s)




NASA's NSSDC Master Catalog

Two Line Element Set (TLE):
1 53819U 22114B   25199.59972968  .00001702  00000-0  12495-3 0  9991
2 53819  53.2183 274.8673 0001241  85.9031 274.2103 15.08847764156956
Source of the keplerian elements: AFSPC